[[{"header":{"parameterUnit":"m.s-1","parameterCategory":1,"la1":30.2991,"la2":30.254,"lo1":-89.0895,"lo2":-89.0444,"dy":0.0017,"dx":0.0017,"nx":28,"ny":28,"refTime":"2025-01-01T03:00:00:Z","depth":0,"parameterNumber":2,"parameterNumberName":"U-component_of_WINDS"},"data":[0,0,0,0,0,0,0,0,0,0,0,0,0,0,0,0,0,0,0,0,0,0,0,0,0,0,0,0,0,0,0,0,0,0,0,0,0,0,0,0,0,0,0,0,0,0,0,0,0,0,0,0,0,0,0,0,0,0,-3.6647,-3.6648,0,-3.6705,-3.6706,-3.6707,-3.655,-3.6545,-3.654,-3.6536,-3.6597,-3.6603,-3.6609,0,0,0,0,0,0,0,0,0,0,0,0,0,-3.6401,-3.6407,-3.6647,-3.6648,-3.6649,-3.6705,-3.6706,-3.6707,-3.6551,-3.6545,-3.6539,-3.6533,-3.6595,-3.6602,-3.6609,0,0,0,0,0,0,0,0,0,0,0,0,0,-3.6489,-3.6408,-3.6647,-3.6578,-3.6572,-3.6705,-3.6706,-3.6707,-3.6552,-3.6545,-3.6537,-3.6531,-3.6592,-3.6601,-3.6611,-3.6814,0,0,-3.6639,-3.6643,0,0,0,0,0,0,0,0,-3.6484,-3.6498,-3.6587,-3.6583,-3.6577,-3.6613,-3.6641,-3.6743,-3.6554,-3.656,-3.6535,-3.6527,-3.6608,-3.6616,-3.6643,-3.6817,-3.6819,-3.664,-3.6645,-3.6649,-3.6652,0,0,0,0,0,0,0,-3.6478,-3.6495,-3.667,-3.6589,-3.6582,-3.6543,-3.6548,-3.666,-3.6624,-3.6559,-3.6547,-3.6556,-3.6604,-3.6634,-3.6643,-3.682,-3.6639,-3.6648,-3.6653,-3.6657,-3.7162,-3.7169,0,0,0,0,0,0,-3.6481,-3.6491,-3.6668,-3.6672,-3.6511,-3.6554,-3.6559,-3.6609,-3.6623,-3.6618,-3.6563,-3.6549,-3.6622,-3.6632,-3.6645,-3.6882,-3.6649,-3.6658,-3.6663,-3.7154,-3.7163,-3.7172,0,0,0,0,0,0,-3.6476,-3.6498,-3.6666,-3.6578,-3.6597,-3.6566,-3.6623,-3.6614,-3.6644,-3.6626,-3.6618,-3.66,-3.6617,-3.6631,-3.6772,-3.6882,-3.6662,-3.667,-3.7145,-3.7157,-3.7168,-3.7361,0,0,0,0,0,0,-3.647,-3.6498,-3.6575,-3.6581,-3.6602,-3.6794,-3.663,-3.662,-3.666,-3.6642,-3.6659,-3.6655,-3.6612,-3.6759,-3.6782,-3.6891,-3.6678,-3.7135,-3.715,-3.7164,-3.7344,-3.7378,-3.7406,0,0,0,0,0,-3.6462,-3.6628,-3.658,-3.6602,-3.6698,-3.68,-3.6812,-3.6759,-3.6669,-3.6747,-3.6734,-3.6654,-3.6867,-3.6775,-3.6799,-3.6913,-3.7128,-3.7146,-3.7163,-3.7331,-3.7371,-3.7405,0,0,0,0,0,0,-3.6637,-3.6627,-3.6574,-3.6747,-3.6776,-3.6774,-3.687,-3.6804,-3.686,-3.6841,-3.6773,-3.6778,-3.6932,-3.6936,-3.6834,-3.7109,-3.6982,-3.7005,-3.7101,-3.7139,-3.717,-3.7166,-3.6685,0,0,0,0,0,-3.6695,-3.6779,-3.6766,-3.692,-3.6937,-3.6902,-3.6944,-3.6901,-3.6928,-3.6939,-3.6937,-3.6967,-3.704,-3.709,-3.7156,-3.7344,-3.7344,-3.7434,-3.7464,-3.749,-3.7511,-3.7609,-3.7648,-3.723,-3.723,-3.723,0,0,-3.6817,-3.6823,-3.688,-3.6955,-3.6972,-3.706,-3.6913,-3.7013,-3.7077,-3.6954,-3.7087,-3.7087,-3.7115,-3.728,-3.7352,-3.7288,-3.7626,-3.7512,-3.7533,-3.754,-3.7631,-3.7671,-3.7706,-3.7242,-3.724,-3.7238,0,0,-3.7085,-3.7098,-3.7226,-3.7246,-3.7273,-3.7247,-3.7279,-3.7286,-3.7281,-3.7413,-3.7322,-3.7397,-3.7525,-3.7549,-3.7577,-3.7851,-3.7779,-3.7875,-3.8036,-3.8133,-3.8166,-3.8194,-3.8291,-3.8327,-3.7896,-3.7896,-3.7897,0,-3.7234,-3.7362,-3.7301,-3.7407,-3.7442,-3.7334,-3.7463,-3.7485,-3.7533,-3.756,-3.7487,-3.7643,-3.7655,-3.7823,-3.789,-3.7917,-3.7949,-3.7873,-3.8166,-3.8194,-3.822,-3.8312,-3.8349,-3.7908,-3.7906,-3.7905,-3.7904,0,-3.7543,-3.7634,-3.7735,-3.7783,-3.7829,-3.7947,-3.7903,-3.7957,-3.7909,-3.7891,-3.8026,-3.8035,-3.8101,-3.8137,-3.8092,-3.8299,-3.8258,-3.8177,-3.8047,-3.8272,-3.8357,-3.8392,-3.7924,-3.792,-3.7916,-3.7914,0,0,-3.7925,-3.7935,-3.7973,-3.7992,-3.8013,-3.8082,-3.8194,-3.8257,-3.8305,-3.8341,-3.8432,-3.8542,-3.8466,-3.8498,-3.8454,-3.8539,-3.8754,-3.8446,-3.8446,-3.8503,-3.8981,-3.9042,-3.9084,-3.8706,-3.8712,-3.8717,-3.8978,0,-3.8188,-3.8379,-3.8326,-3.8517,-3.8599,-3.8496,-3.8593,-3.8616,-3.8602,-3.867,-3.8654,-3.8732,-3.8626,-3.8645,-3.8724,-3.8711,-3.8849,-3.8692,-3.879,-3.8794,-3.8786,-3.9129,-3.9194,-3.944,-3.9011,-3.9017,-3.9021,0,-3.8521,-3.8569,-3.8768,-3.8773,-3.8806,-3.8894,-3.8946,-3.9013,-3.9036,-3.9019,-3.9055,-3.8993,-3.9102,-3.8972,-3.9121,-3.9015,-3.9051,-3.9051,-3.9059,-3.9067,-3.8922,-3.9145,-3.9518,-3.9555,-3.9073,-3.9069,-3.9065,0,-3.8779,-3.8893,-3.9026,-3.9046,-3.9055,-3.912,-3.9127,-3.9143,-3.9183,-3.9229,-3.9255,-3.9313,-3.9346,-3.9392,-3.9347,-3.9256,-3.9503,-3.9369,-3.9492,-3.9493,-3.9549,-3.9546,-3.9933,-3.9574,-3.9573,-3.9572,-3.9572,0,-3.9078,-3.9204,-3.9141,-3.9224,-3.9361,-3.9298,-3.9436,-3.9431,-3.9446,-3.9525,-3.9439,-3.9515,-3.9451,-3.9521,-3.9487,-3.9615,-3.963,-3.962,-3.9609,-3.9628,-3.9629,-3.9651,-3.9633,-3.9582,-3.958,-3.9578,-3.9576,0,-3.939,-3.9353,-3.9491,-3.9488,-3.949,-3.9591,-3.9588,-3.9664,-3.9642,-3.9744,-3.9764,-3.9731,-3.9809,-3.9768,-3.9849,-3.9826,-3.9991,-3.9957,-3.9983,-3.9974,-4.01,-4.0088,-4.0514,-4.0566,-4.0174,-4.0178,-4.0181,0,-3.9583,-3.9677,-3.9684,-3.973,-3.9743,-3.9819,-3.9859,-3.9801,-3.9846,-3.9879,-3.995,-4.002,-4.0073,-4.0203,-4.0186,-4.0247,-4.0214,-4.0359,-4.0222,-4.0237,-4.0215,-4.021,-4.0219,-4.0386,-4.0391,-4.0395,-4.0398,0,-3.9931,-3.9907,-3.9969,-4.0024,-4.0075,-4.0116,-4.0149,-4.0192,-4.0134,-4.0189,-4.0267,-4.0308,-4.039,-4.046,-4.0512,-4.0519,-4.045,-4.044,-4.0472,-4.0492,-4.0503,-4.0498,-4.0058,-4.0431,-4.0428,-4.0425,-4.0424,-4.0422,-4.0189,-4.0267,-4.0283,-4.0354,-4.0373,-4.0406,-4.0476,-4.0463,-4.0526,-4.0588,-4.0549,-4.0641,-4.0659,-4.0722,-4.0738,-4.0808,-4.075,-4.0796,-4.0808,-4.082,-4.0837,-4.0492,-4.0817,-4.0816,-4.0815,-4.0814,-4.0814,0,-4.0531,-4.0536,-4.0602,-4.0651,-4.0706,-4.0634,-4.0667,-4.0718,-4.08,-4.0823,-4.0876,-4.0965,-4.1033,-4.1021,-4.1081,-4.114,-4.1109,-4.1158,-4.1153,-4.1155,-4.0885,-4.0852,-4.1182,-4.1181,-4.1181,-4.1181,-4.1181,-4.1181,-4.0716,-4.0844,-4.0822,-4.0958,-4.0961,-4.105,-4.1075,-4.1104,-4.1122,-4.1225,-4.128,-4.1271,-4.128,-4.134,-4.1399,-4.1393,-4.1419,-4.148,-4.1463,-4.1211,-4.1175,-4.114,-4.1108,-4.1486,-4.1487,-4.1727,-4.1729,-4.1731]},{"header":{"parameterUnit":"m.s-1","parameterCategory":1,"la1":30.2991,"la2":30.254,"lo1":-89.0895,"lo2":-89.0444,"dy":0.0017,"dx":0.0017,"nx":28,"ny":28,"refTime":"2025-01-01T03:00:00:Z","depth":0,"parameterNumber":3,"parameterNumberName":"V-component_of_WINDS"},"data":[0,0,0,0,0,0,0,0,0,0,0,0,0,0,0,0,0,0,0,0,0,0,0,0,0,0,0,0,0,0,0,0,0,0,0,0,0,0,0,0,0,0,0,0,0,0,0,0,0,0,0,0,0,0,0,0,0,0,-2.8669,-2.867,0,-2.8742,-2.8742,-2.8743,-2.8727,-2.8726,-2.8724,-2.8723,-2.8795,-2.8798,-2.8801,0,0,0,0,0,0,0,0,0,0,0,0,0,-2.8513,-2.8516,-2.8669,-2.867,-2.8671,-2.8741,-2.8742,-2.8743,-2.8727,-2.8725,-2.8724,-2.8722,-2.8794,-2.8798,-2.8802,0,0,0,0,0,0,0,0,0,0,0,0,0,-2.8583,-2.8517,-2.8669,-2.8671,-2.8672,-2.8741,-2.8742,-2.8744,-2.8727,-2.8725,-2.8723,-2.8721,-2.8793,-2.8798,-2.8802,-2.8873,0,0,-2.8817,-2.8819,0,0,0,0,0,0,0,0,-2.8579,-2.8589,-2.867,-2.8671,-2.8672,-2.8723,-2.8714,-2.8787,-2.8728,-2.8706,-2.8723,-2.872,-2.8773,-2.8779,-2.8797,-2.8876,-2.8879,-2.8817,-2.882,-2.8822,-2.8824,0,0,0,0,0,0,0,-2.8574,-2.8585,-2.8698,-2.8671,-2.8673,-2.8668,-2.8675,-2.8728,-2.875,-2.8708,-2.8707,-2.8716,-2.8773,-2.8792,-2.8799,-2.888,-2.8817,-2.8821,-2.8824,-2.8826,-2.9018,-2.9021,0,0,0,0,0,0,-2.8569,-2.8582,-2.8695,-2.87,-2.862,-2.8672,-2.8681,-2.8709,-2.8749,-2.8754,-2.8718,-2.8715,-2.8785,-2.8793,-2.8801,-2.8885,-2.8822,-2.8827,-2.8829,-2.9016,-2.9019,-2.9021,0,0,0,0,0,0,-2.8565,-2.8579,-2.8692,-2.864,-2.8654,-2.8677,-2.8709,-2.8711,-2.8731,-2.8757,-2.876,-2.8734,-2.8784,-2.8794,-2.8855,-2.8887,-2.8829,-2.8833,-2.9014,-2.9017,-2.902,-2.9053,0,0,0,0,0,0,-2.8561,-2.8578,-2.8606,-2.8641,-2.8657,-2.8746,-2.8711,-2.8714,-2.8739,-2.8737,-2.8773,-2.8777,-2.8783,-2.8848,-2.8859,-2.8893,-2.8837,-2.9011,-2.9015,-2.9019,-2.905,-2.9058,-2.9064,0,0,0,0,0,-2.8556,-2.8612,-2.8607,-2.8621,-2.8693,-2.8748,-2.8757,-2.8764,-2.8742,-2.877,-2.8786,-2.8776,-2.8882,-2.8854,-2.8867,-2.8902,-2.9009,-2.9014,-2.9019,-2.9046,-2.9056,-2.9064,0,0,0,0,0,0,-2.858,-2.8617,-2.8612,-2.8682,-2.8712,-2.8745,-2.878,-2.8774,-2.881,-2.8806,-2.8812,-2.882,-2.8881,-2.8898,-2.8866,-2.8971,-2.8942,-2.895,-2.8958,-2.8968,-2.8975,-2.8969,-2.8841,0,0,0,0,0,-2.8593,-2.8636,-2.8666,-2.8725,-2.874,-2.8757,-2.8782,-2.8784,-2.8815,-2.8827,-2.8848,-2.8878,-2.8918,-2.8944,-2.8982,-2.9052,-2.9059,-2.9082,-2.909,-2.9096,-2.9102,-2.9138,-2.9149,-2.9038,-2.9038,-2.9038,0,0,-2.8622,-2.8647,-2.8674,-2.873,-2.8754,-2.8796,-2.8768,-2.8815,-2.8846,-2.8834,-2.8892,-2.8908,-2.8942,-2.9007,-2.9036,-2.9022,-2.9134,-2.9102,-2.9107,-2.911,-2.9145,-2.9155,-2.9164,-2.9041,-2.9041,-2.904,0,0,-2.8695,-2.8719,-2.877,-2.8794,-2.883,-2.8841,-2.8853,-2.8887,-2.8897,-2.8956,-2.8947,-2.8984,-2.9053,-2.9077,-2.9098,-2.9178,-2.9169,-2.919,-2.9229,-2.9264,-2.9273,-2.928,-2.9308,-2.9317,-2.9197,-2.9197,-2.9197,0,-2.8725,-2.879,-2.8797,-2.8844,-2.8868,-2.886,-2.891,-2.8933,-2.8979,-2.8996,-2.898,-2.9065,-2.9087,-2.9156,-2.9176,-2.9194,-2.9207,-2.9186,-2.9271,-2.9279,-2.9286,-2.9312,-2.9322,-2.9199,-2.9199,-2.9199,-2.9199,0,-2.8825,-2.8869,-2.8906,-2.8951,-2.8979,-2.9028,-2.9041,-2.9069,-2.9069,-2.9081,-2.914,-2.9166,-2.9208,-2.9225,-2.9226,-2.9294,-2.9284,-2.927,-2.924,-2.9299,-2.9323,-2.9333,-2.9202,-2.9202,-2.9201,-2.92,0,0,-2.8915,-2.8963,-2.8976,-2.8995,-2.9034,-2.9068,-2.9115,-2.9157,-2.918,-2.9212,-2.9251,-2.9309,-2.9295,-2.9319,-2.9322,-2.9353,-2.9413,-2.9335,-2.9336,-2.9347,-2.9488,-2.9498,-2.9509,-2.9408,-2.941,-2.9411,-2.9485,0,-2.8991,-2.9075,-2.9082,-2.9157,-2.9198,-2.919,-2.9231,-2.9258,-2.9271,-2.9306,-2.9319,-2.936,-2.934,-2.9354,-2.9384,-2.9399,-2.9441,-2.9394,-2.9443,-2.9444,-2.9433,-2.9522,-2.9533,-2.9601,-2.9495,-2.9496,-2.9497,0,-2.909,-2.9125,-2.9204,-2.9235,-2.9252,-2.9289,-2.9327,-2.9362,-2.9392,-2.9399,-2.9425,-2.9423,-2.947,-2.9439,-2.9504,-2.9472,-2.9492,-2.9502,-2.9505,-2.9508,-2.9474,-2.9527,-2.9623,-2.9633,-2.9513,-2.9512,-2.951,0,-2.9146,-2.9213,-2.9268,-2.9285,-2.9324,-2.9349,-2.9366,-2.9395,-2.9419,-2.9452,-2.9467,-2.9505,-2.9526,-2.9555,-2.9563,-2.954,-2.9626,-2.9597,-2.9632,-2.9631,-2.9649,-2.9648,-2.9749,-2.9665,-2.9665,-2.9664,-2.9664,0,-2.9228,-2.9277,-2.9294,-2.9328,-2.9381,-2.9388,-2.9441,-2.9456,-2.9481,-2.9517,-2.9513,-2.9546,-2.9555,-2.959,-2.9597,-2.9648,-2.9658,-2.9663,-2.9664,-2.9663,-2.9662,-2.9675,-2.967,-2.9667,-2.9667,-2.9666,-2.9666,0,-2.93,-2.9313,-2.9373,-2.9404,-2.9413,-2.9451,-2.9477,-2.9509,-2.9521,-2.9566,-2.9577,-2.9595,-2.9636,-2.9647,-2.9696,-2.97,-2.976,-2.9757,-2.9749,-2.9749,-2.9783,-2.9779,-2.9895,-2.991,-2.9817,-2.9818,-2.9819,0,-2.9351,-2.9388,-2.9423,-2.9447,-2.9465,-2.9504,-2.9528,-2.9536,-2.9562,-2.9598,-2.9625,-2.9665,-2.9698,-2.9763,-2.978,-2.9817,-2.9814,-2.9852,-2.9819,-2.9816,-2.9812,-2.981,-2.9812,-2.9858,-2.9859,-2.9859,-2.986,0,-2.944,-2.9444,-2.948,-2.9518,-2.9548,-2.9578,-2.9607,-2.9626,-2.9638,-2.9667,-2.9708,-2.9734,-2.9783,-2.9822,-2.9859,-2.9876,-2.9869,-2.987,-2.988,-2.9879,-2.9872,-2.9874,-2.9765,-2.9867,-2.9867,-2.9866,-2.9866,-2.9865,-2.9502,-2.9534,-2.9563,-2.9602,-2.9625,-2.9652,-2.9683,-2.9698,-2.9733,-2.9774,-2.9777,-2.9821,-2.9849,-2.9898,-2.9916,-2.995,-2.9939,-2.9954,-2.9957,-2.996,-2.9962,-2.9868,-2.9957,-2.9957,-2.9957,-2.9957,-2.9957,0,-2.9589,-2.9607,-2.9644,-2.9684,-2.9715,-2.9707,-2.9738,-2.9764,-2.9803,-2.983,-2.9862,-2.9909,-2.9947,-2.9966,-3.0003,-3.0027,-3.0025,-3.0036,-3.0034,-3.0037,-2.9971,-2.9958,-3.0037,-3.0037,-3.0037,-3.0037,-3.0037,-3.0037,-2.9638,-2.9691,-2.9699,-2.9762,-2.978,-2.9824,-2.9842,-2.9866,-2.9887,-2.994,-2.9971,-2.9984,-3.0007,-3.0046,-3.0079,-3.0084,-3.0097,-3.011,-3.0113,-3.005,-3.0042,-3.0034,-3.0022,-3.0113,-3.0113,-3.0176,-3.0176,-3.0177]}]]